Location: Eimen
(51.8766°N, 9.7806°E)
Time: 14:56:00
(UTC+00:00)

Cosmos 1242 Rocket - Pass Details

Date: 23 May 2024
Orbit: 323 x 338 km, 81.1° (Epoch: 13 June)

Event Time Altitude Azimuth Distance (km) Brightness Sun altitude
Exits shadow 01:14:34 17° 161° (SSE) 1,001 3.8 -13.1°
Maximum altitude 01:16:27 40° 97° (E) 554 3.0 -13.0°
Drops below altitude 10° 01:19:15 10° 26° (NNE) 1,367 6.4 -12.8°
Sets 01:21:18 0° 19° (NNE) 2,223 7.8 -12.6°
